Regional Weather Roundup
Issued by NWS Wakefield, VA

Home | Current Version | Previous Version | Graphics & Text | Print | Product List | Glossary On
Versions: 1 2 3 4 5 6 7 8 9 10 11 12 13 14 15 16 17 18 19 20 21 22 23 24 25 26 27 28 29 30 31 32 33 34 35 36 37 38 39 40 41 42 43 44 45 46 47 48 49 50
000
ASUS41 KAKQ 291810
RWRAKQ

REGIONAL WEATHER ROUNDUP
NATIONAL WEATHER SERVICE WAKEFIELD VA
100 PM EST THU JAN 29 2015

Note: "fair" indicates few or no clouds below 12,000 feet with no
significant weather and/or obstructions to visibility. * = Denotes
station may not report precipitation (e.g., rain,snow,etc.),
thunder or fog.

VAZ042-051-052>054-056-291900-
NORTHERN VIRGINIA

CITY           SKY/WX    TMP DP  RH WIND       PRES   REMARKS
WASH NATIONAL  CLOUDY    37  13  37 S10       30.21F
DULLES         CLOUDY    32  10  40 SE10G16   30.17F WCI  24
FORT BELVOIR   CLOUDY    35  15  44 SE7       30.21F
QUANTICO       NOT AVBL
FREDERICKSBRG* PTSUNNY   39  10  30 S8        30.19F
STAFFORD*      CLOUDY    36  10  33 SE7       30.23F
WARRENTON      MOSUNNY   38  19  44 S8        30.16F
CULPEPER*      PTSUNNY   39  10  30 S9        30.16F
MANASSAS*      NOT AVBL
LEESBURG*      CLOUDY    34  16  47 S9        30.17F
WINCHESTER     CLOUDY    36   7  30 S9G16     30.08F
FRONT ROYAL*   FAIR      37  14  38 S8        30.07F
LURAY*         FAIR      41  18  38 SW12      30.07F
$$

VAZ048-049-060>072-079>083-291900-
CENTRAL AND SOUTH CENTRAL VIRGINIA

CITY           SKY/WX    TMP DP  RH WIND       PRES   REMARKS
RICHMOND       CLOUDY    40  12  32 S9        30.23F
CHESTERFIELD*  FAIR      39   9  28 S9        30.23F
PETERSBURG*    PTSUNNY   42   8  25 S6        30.24F
HANOVER        PTSUNNY   38  10  31 S10       30.23F
TAPPAHANNOCK*  PTSUNNY   38   5  25 S8        30.24F
QUINTON*       FAIR      37  10  32 S8        30.24F
CHARLOTTSVILLE CLOUDY    40   9  28 S12G18    30.14F
GORDONSVILLE*  FAIR      37   8  30 S9        30.15F
ORANGE*        PTSUNNY   39  10  30 S8        30.17F
LOUISA*        PTSUNNY   39  10  30 S8        30.16F
BUMPASS*       FAIR      38   9  30 S6        30.18F
FARMVILLE*     MOSUNNY   46  13  26 S9G18     30.17F
CREWE*         FAIR      42   8  25 S7        30.19F
FORT PICKETT*  FAIR      42  11  29 S8        30.20F
CHASE CITY*    FAIR      43  15  31 S5        30.21F
CLARKSVILLE*   FAIR      41  14  33 S6        30.21F
SOUTH HILL*    PTSUNNY   40  11  30 SW9       30.29F
LAWRENCEVILLE* FAIR      41  10  28 S7        30.24F
EMPORIA*       PTSUNNY   37  12  35 S7        30.27F
$$

VAZ088>098-291900-
SOUTHEAST VIRGINIA

CITY           SKY/WX    TMP DP  RH WIND       PRES   REMARKS
NORFOLK        CLOUDY    39  14  36 S8        30.25F
VIRGINIA BEACH CLOUDY    40  14  34 CALM      30.26F
NORFOLK NAVAL  CLOUDY    41  19  41 SW7       30.27F
WEST POINT*    PTSUNNY   41  11  28 S6        30.26F
SALUDA*        FAIR      37  18  46 SW8       30.25F
NEWPORT NEWS   CLOUDY    40  16  37 S7        30.26F
LANGLEY AFB    CLOUDY    38  21  50 SW8       30.26F
FORT EUSTIS    NOT AVBL
WILLIAMSBURG*    N/A     41  18  38 S8        30.26F
HR EXEC AP*    FAIR      37  19  48 SW7       30.29F
FRANKLIN*      PTSUNNY   38  13  35 S7        30.27F
WAKEFIELD      PTSUNNY   39  13  34 S5        30.26F
$$

VAZ020-022-025-037-045-291900-
WEST CENTRAL AND SOUTHWEST VIRGINIA

CITY           SKY/WX    TMP DP  RH WIND       PRES   REMARKS
STAUNTON*      CLOUDY    39  12  32 S10       30.09F
WAYNESBORO*    FAIR      40  15  36 S7        30.08F
HOT SPRINGS VA CLOUDY    31  17  56 W8        29.98R
LYNCHBURG      CLOUDY    40  16  37 S9G18     30.15F
DANVILLE       PTSUNNY   45  18  34 SW13      30.20F
SOUTH BOSTON*  FAIR      44  10  25 S8        30.20F
MARTINSVILLE   CLOUDY    46  19  34 SW9       30.17F
ROANOKE        PTSUNNY   40  18  41 CALM      30.14F
BLACKSBURG     CLOUDY    40  19  42 SW6       30.13S
DUBLIN*        FLURRIES  38  24  56 CALM      30.08F
MARION*        LGT RAIN  36  27  70 CALM      30.09F
HILLSVILLE*    CLOUDY    37  21  53 SW13      30.10R
RICHLANDS*     CLOUDY    37  29  70 SE6       30.00F
WISE*          PTSUNNY   45  30  57 SW16G23   30.00F
ABINGDON*      CLOUDY    38  29  72 S3        30.06F
$$

MDZ021>025-VAZ099-100-291900-
SOUTHERN MARYLAND AND THE DELMARVA PENINSULA

CITY           SKY/WX    TMP DP  RH WIND       PRES   REMARKS
PATUXENT RIVER CLOUDY    36  14  40 S7        30.24F
BAY BRIDGE APT   N/A     32  10  40 SE9       30.23F
LEONARDTOWN    CLOUDY    34  16  47 S6        30.25F
DOVER          CLOUDY    33  18  55 E6        30.23F
GEORGETOWN     CLOUDY    36  12  37 S6        30.23F
EASTON         CLOUDY    36  14  41 S7        30.26F
CAMBRIDGE      CLOUDY    36  14  41 S7        30.23F
SALISBURY      CLOUDY    39  10  30 SE7       30.23F
OCEAN CITY     PTSUNNY   34  20  56 S6        30.25F
WALLOPS ISLAND CLOUDY    34  21  59 S7        30.26F
ACCOMACK*      CLOUDY    34  10  37 S8        30.25F
$$

NCZ012>017-030>032-291900-
NORTH CENTRAL AND EASTERN NORTH CAROLINA

CITY           SKY/WX    TMP DP  RH WIND       PRES   REMARKS
ROANOKE RAPIDS FAIR      39  14  35 S5        30.26F
RALEIGH        PTSUNNY   44  14  29 S8        30.25F
ELIZABETH CITY CLOUDY    38  16  40 S5        30.28F
AHOSKIE*       PTSUNNY   39  12  33 CALM      30.27F
EDENTON*       CLOUDY    39  21  48 SW5       30.28F
CURRITUCK*     CLOUDY    39  11  32 SW3       30.28F
KILL DEVIL HLS CLOUDY    38  23  54 W6        30.26F
MANTEO         CLOUDY    37  23  56 SW3       30.28F
CAPE HATTERAS  PTSUNNY   40  23  50 VRB5      30.28F
TARBORO*       FAIR      41  12  30 CALM      30.28F
GOLDSBORO      PTSUNNY   45  15  30 W2        30.26F
WASHINGTON     MOSUNNY   41  13  32 W5        30.29F
GREENVILLE     MOSUNNY   43  12  28 W3        30.29F
NEW BERN       MOSUNNY   46  12  25 CALM      30.30F
WILMINGTON     SUNNY     49  18  29 SE5       30.30F
$$

VAZ048-291900-
ELSEWHERE

CITY           SKY/WX    TMP DP  RH WIND       PRES   REMARKS
HARRISBURG PA  CLOUDY    28  13  53 SE6       30.17F
BALTIMORE      CLOUDY    32  11  41 SE7       30.20F
ANNAPOLIS      CLOUDY    33  15  47 S9        30.23F
ANDREWS AFB    NOT AVBL
PHILADELPHIA   CLOUDY    33   7  33 S5        30.24F
HENDERSON NC   PTSUNNY   45   9  23 S3        30.22F
GREENSBORO     CLOUDY    47  21  35 SW12      30.18F
ROCKY MOUNT    PTSUNNY   43  13  29 SW7       30.27F
$$

VAZ100-291900-
MARINE

STATION/POSITION TIME  TEMP    WIND        PRES    WAVE   SWELL
                       AIR SEA DIR/SP/G            HT/PER HT/PER
                 (UTC) (F)     (DEG/KT/KT) (MB)    (FT/S) (FT/S)
BRANDYWINE LGT   1800   31 36  180/  8/  9 1024.3F
CAPE MAY NJ      1800   32 37              1023.8F
LEWES DE         1800   34 34  190/  3/  8 1024.0F
15NM E FENWICK I 1800   34 40              1024.0F   3/ 6
OCEAN-CITY-INLET 1800   33 35  220/  4/  5 1024.1F
WACHAPREAGUE VA  1800   34 34  180/  5/  7 1024.6F
THOMAS POINT MD  1800   32 35  180/ 16/ 17 1024.5F
GOOSES REEF MD   1700   32     VRB 14/ 16  1023.3F
COVE POINT MD    1800   31     190/ 13/ 15 1024.0F
SOLOMONS ISLAND  1800      37                N/A
BISHOPS HEAD MD  1800   32 34  160/ 10/ 12 1023.5F
PINEY POINT MD   1800          190/  7/  9   N/A
POTOMAC MD       1700   33     170/ 10/ 12 1023.9F
CAMBRIDGE MD     1800   34 35  170/  5/  9 1023.8F
LEWISETTA VA     1800   35 35  180/  6/  8 1023.8F
RAPPAHANNOCK LGT 1800          180/  9/ 11 1025.0F
STINGRAY PT      1700   34     180/  8/ 12 1025.5F
YORK RVR RNG VA  1800   35     170/  8/  9 1024.0F
JAMESTOWN VA     1700   35     190/  6/  8   N/A
DOMINION TERM VA 1800   36     220/  6/  8 1024.8F
KIPTOPEKE VA     1800      43  190/  7/  8   N/A
CHES BAY BRIDGE  1800   36 40  100/  1/  2 1024.4F
CAPE HENRY VA    1800   36     110/  6/  8 1023.4F
CHESAPEAKE LGHT  1700   35     170/  2/  3 1026.3F
WILLOUBY STN VA  1800   36     210/  7/  8 1025.0F
S CRANEY ISL VA  1800          200/  5/  6 1024.7F
CAPE HENRY BUOY  1700      43                N/A     4/ 7   2/11
1ST LANDING BUOY 1700   35     130/  4/  6 1025.0F
CAPE CHARLES BUO 1700      41                N/A     3/12   3/12
OFFSHORE WE BUOY 1800      43                N/A     4/ 8   5/ 8
64NM E OF VA BCH 1800   39 49  310/  2/  4 1024.2F   5/ 8   5/ 8
DUCK PIER NC     1800   36 42  300/  2/  3 1024.6F
44100 DUCK FRF   1800      45                N/A     4/ 7   2/13
44056 DUCK FRF   1800      42                N/A     4/10   2/11
OREGON INLET NC  1800   37 42  230/  5/  6 1025.1F
HATTERAS NC      1800   38 44  350/  3/  5 1025.6F
DIAMOND SHLS NC  1800   40 72  340/  8/ 10 1025.1F   5/ 9   5/ 9



USA.gov is the U.S. government's official web portal to all federal, state and local government web resources and services.